When you browse on this site, cookies collect data to enhance your experience and personalize the content and advertising you see.
Visit our Privacy Policy to learn more. By continuing to use the site, you agree to this use of cookies and data.
  • In United Kingdom
  • List of Countries
  • For 7 days
  • Water Temperature
  • Satellite Maps
  • Weather Map
  • Weather Widgets
  • user-avatar
    Login

    Hourly Weather Szekszard

    Today, 19 April, Friday

    Time Temperature Precipitation Wind Pressure Humidity
    00:00 +11°C° 0 mm 1 mps 763 mmHg 75%
    01:00 +11°C° 0 mm 1 mps 763 mmHg 76%
    02:00 +9°C° 0 mm 2 mps 763 mmHg 79%
    03:00 +9°C° 0 mm 2 mps 763 mmHg 81%
    04:00 +9°C° 0 mm 2 mps 763 mmHg 84%
    05:00 +9°C° 0 mm 2 mps 764 mmHg 81%
    06:00 +10°C° 0 mm 2 mps 764 mmHg 77%
    07:00 +12°C° 0 mm 2 mps 764 mmHg 74%
    08:00 +14°C° 0 mm 2 mps 764 mmHg 65%
    09:00 +16°C° 0 mm 3 mps 764 mmHg 56%
    10:00 +18°C° 0 mm 3 mps 764 mmHg 48%
    11:00 +19°C° 0 mm 3 mps 764 mmHg 45%
    12:00 +20°C° 0 mm 3 mps 763 mmHg 42%
    13:00 +21°C° 0 mm 3 mps 763 mmHg 39%
    14:00 +21°C° 0 mm 3 mps 763 mmHg 40%
    15:00 +21°C° 0 mm 3 mps 762 mmHg 41%
    16:00 +21°C° 0 mm 3 mps 762 mmHg 42%
    17:00 +19°C° 0 mm 3 mps 762 mmHg 47%
    18:00 +18°C° 0 mm 2 mps 762 mmHg 52%
    19:00 +16°C° 0 mm 2 mps 762 mmHg 58%
    20:00 +16°C° 0 mm 2 mps 763 mmHg 58%
    21:00 +15°C° 0 mm 2 mps 763 mmHg 59%
    22:00 +14°C° 0 mm 2 mps 763 mmHg 59%
    23:00 +13°C° 0 mm 2 mps 763 mmHg 60%

    Tomorrow, 20 April, Saturday

    Time Temperature Precipitation Wind Pressure Humidity
    00:00 +12°C° 0 mm 2 mps 763 mmHg 60%
    01:00 +10°C° 0 mm 3 mps 764 mmHg 61%
    02:00 +9°C° 0 mm 2 mps 764 mmHg 62%
    03:00 +8°C° 0 mm 2 mps 763 mmHg 63%
    04:00 +8°C° 0 mm 2 mps 763 mmHg 63%
    05:00 +8°C° 0 mm 2 mps 764 mmHg 62%
    06:00 +9°C° 0 mm 3 mps 764 mmHg 61%
    07:00 +10°C° 0 mm 3 mps 764 mmHg 60%
    08:00 +12°C° 0 mm 3 mps 764 mmHg 54%
    09:00 +14°C° 0 mm 4 mps 764 mmHg 49%
    10:00 +15°C° 0 mm 4 mps 764 mmHg 43%
    11:00 +17°C° 0 mm 4 mps 764 mmHg 40%
    12:00 +18°C° 0 mm 3 mps 763 mmHg 37%
    13:00 +19°C° 0 mm 3 mps 763 mmHg 35%
    14:00 +19°C° 0 mm 3 mps 762 mmHg 35%
    15:00 +19°C° 0 mm 3 mps 762 mmHg 35%
    16:00 +19°C° 0 mm 2 mps 762 mmHg 36%
    17:00 +17°C° 0 mm 2 mps 761 mmHg 40%
    18:00 +15°C° 0 mm 1 mps 761 mmHg 45%
    19:00 +13°C° 0 mm 1 mps 761 mmHg 49%
    20:00 +13°C° 0 mm 1 mps 761 mmHg 50%
    21:00 +12°C° 0 mm 1 mps 761 mmHg 51%
    22:00 +11°C° 0 mm 1 mps 761 mmHg 53%
    23:00 +11°C° 0 mm 1 mps 761 mmHg 54%

    Day after tomorrow, 21 April, Sunday

    Time Temperature Precipitation Wind Pressure Humidity
    00:00 +11°C° 0 mm 1 mps 761 mmHg 55%
    01:00 +10°C° 0 mm 1 mps 760 mmHg 57%
    02:00 +10°C° 0 mm 1 mps 760 mmHg 58%
    03:00 +10°C° 0 mm 1 mps 760 mmHg 59%
    04:00 +9°C° 0 mm 1 mps 759 mmHg 60%
    05:00 +10°C° 0 mm 1 mps 759 mmHg 59%
    06:00 +12°C° 0 mm 1 mps 759 mmHg 57%
    07:00 +13°C° 0 mm 1 mps 759 mmHg 56%
    08:00 +15°C° 0 mm 1 mps 759 mmHg 51%
    09:00 +16°C° 0 mm 1 mps 759 mmHg 46%
    10:00 +19°C° 0 mm 1 mps 759 mmHg 41%
    11:00 +19°C° 0 mm 2 mps 758 mmHg 39%
    12:00 +19°C° 0 mm 2 mps 758 mmHg 38%
    13:00 +20°C° 0 mm 2 mps 757 mmHg 36%
    14:00 +20°C° 0 mm 2 mps 757 mmHg 36%
    15:00 +20°C° 0 mm 2 mps 756 mmHg 36%
    16:00 +21°C° 0 mm 1 mps 756 mmHg 36%
    17:00 +19°C° 0 mm 1 mps 756 mmHg 41%
    18:00 +18°C° 0 mm 1 mps 756 mmHg 46%
    19:00 +15°C° 0 mm 1 mps 755 mmHg 51%
    20:00 +14°C° 0 mm 1 mps 756 mmHg 52%
    21:00 +13°C° 0 mm 1 mps 756 mmHg 54%
    22:00 +13°C° 0 mm 1 mps 756 mmHg 55%
    23:00 +12°C° 0 mm 1 mps 756 mmHg 56%

    22 April, Monday

    Time Temperature Precipitation Wind Pressure Humidity
    00:00 +12°C° 0 mm 1 mps 756 mmHg 57%
    01:00 +10°C° 0 mm 2 mps 755 mmHg 59%
    02:00 +10°C° 0 mm 2 mps 755 mmHg 60%
    03:00 +9°C° 0 mm 2 mps 755 mmHg 62%
    04:00 +9°C° 0 mm 2 mps 755 mmHg 63%
    05:00 +10°C° 0 mm 2 mps 755 mmHg 62%
    06:00 +12°C° 0 mm 2 mps 755 mmHg 61%
    07:00 +12°C° 0 mm 3 mps 755 mmHg 61%
    08:00 +14°C° 0 mm 3 mps 755 mmHg 56%
    09:00 +17°C° 0 mm 4 mps 754 mmHg 51%
    10:00 +19°C° 0 mm 5 mps 754 mmHg 47%
    11:00 +20°C° 0 mm 5 mps 754 mmHg 45%
    12:00 +21°C° 0 mm 5 mps 754 mmHg 43%
    13:00 +21°C° 0 mm 5 mps 753 mmHg 41%
    14:00 +22°C° 0 mm 5 mps 753 mmHg 42%
    15:00 +22°C° 0 mm 5 mps 752 mmHg 43%
    16:00 +22°C° 0 mm 5 mps 752 mmHg 44%
    17:00 +20°C° 0 mm 5 mps 752 mmHg 50%
    18:00 +19°C° 0 mm 5 mps 751 mmHg 56%
    19:00 +16°C° 0 mm 5 mps 751 mmHg 62%
    20:00 +16°C° 0 mm 6 mps 751 mmHg 59%
    21:00 +16°C° 0 mm 7 mps 752 mmHg 55%
    22:00 +16°C° 0 mm 8 mps 752 mmHg 52%
    23:00 +15°C° 0 mm 8 mps 752 mmHg 54%

    23 April, Tuesday

    Time Temperature Precipitation Wind Pressure Humidity
    00:00 +13°C° 0 mm 8 mps 751 mmHg 56%
    01:00 +13°C° 0 mm 8 mps 751 mmHg 57%
    02:00 +12°C° 0.2 mm 8 mps 751 mmHg 65%
    03:00 +12°C° 0.2 mm 8 mps 751 mmHg 72%
    04:00 +11°C° 0.2 mm 8 mps 751 mmHg 79%
    05:00 +11°C° 0.4 mm 9 mps 752 mmHg 79%
    06:00 +10°C° 0.4 mm 9 mps 752 mmHg 78%
    07:00 +9°C° 0.4 mm 10 mps 752 mmHg 78%
    08:00 +12°C° 0 mm 10 mps 752 mmHg 72%
    09:00 +13°C° 0 mm 10 mps 752 mmHg 66%
    10:00 +14°C° 0 mm 10 mps 752 mmHg 61%
    11:00 +16°C° 0 mm 10 mps 752 mmHg 59%
    12:00 +17°C° 0 mm 10 mps 752 mmHg 58%
    13:00 +17°C° 0 mm 10 mps 751 mmHg 57%
    14:00 +18°C° 0 mm 9 mps 751 mmHg 57%
    15:00 +18°C° 0 mm 9 mps 751 mmHg 57%
    16:00 +18°C° 0 mm 9 mps 751 mmHg 58%
    17:00 +17°C° 0.1 mm 9 mps 751 mmHg 60%
    18:00 +16°C° 0.1 mm 8 mps 751 mmHg 63%
    19:00 +13°C° 0.1 mm 8 mps 751 mmHg 66%
    20:00 +14°C° 0.2 mm 7 mps 751 mmHg 67%
    21:00 +13°C° 0.2 mm 6 mps 752 mmHg 68%
    22:00 +13°C° 0.2 mm 6 mps 752 mmHg 69%
    23:00 +13°C° 0.1 mm 6 mps 752 mmHg 70%

    24 April, Wednesday

    Time Temperature Precipitation Wind Pressure Humidity
    00:00 +11°C° 0.1 mm 6 mps 752 mmHg 72%
    01:00 +11°C° 0.1 mm 6 mps 752 mmHg 73%
    02:00 +11°C° 0.1 mm 6 mps 752 mmHg 77%
    03:00 +11°C° 0.1 mm 6 mps 752 mmHg 81%
    04:00 +11°C° 0.1 mm 6 mps 753 mmHg 85%
    05:00 +11°C° 0 mm 6 mps 753 mmHg 83%
    06:00 +11°C° 0 mm 6 mps 754 mmHg 81%
    07:00 +12°C° 0 mm 5 mps 754 mmHg 79%
    08:00 +14°C° 0 mm 5 mps 754 mmHg 75%
    09:00 +15°C° 0 mm 5 mps 754 mmHg 71%
    10:00 +17°C° 0 mm 5 mps 755 mmHg 67%
    11:00 +19°C° 0 mm 5 mps 755 mmHg 64%
    12:00 +20°C° 0 mm 4 mps 754 mmHg 61%
    13:00 +22°C° 0 mm 4 mps 754 mmHg 58%
    14:00 +22°C° 0.5 mm 4 mps 754 mmHg 59%
    15:00 +22°C° 0.5 mm 4 mps 754 mmHg 60%
    16:00 +22°C° 0.5 mm 4 mps 754 mmHg 61%
    17:00 +21°C° 0.6 mm 4 mps 754 mmHg 67%
    18:00 +19°C° 0.6 mm 4 mps 754 mmHg 73%
    19:00 +17°C° 0.6 mm 4 mps 755 mmHg 79%
    20:00 +15°C° 0.1 mm 4 mps 755 mmHg 80%
    21:00 +14°C° 0.1 mm 4 mps 755 mmHg 80%
    22:00 +13°C° 0.1 mm 4 mps 756 mmHg 81%
    23:00 +13°C° 0 mm 4 mps 756 mmHg 82%
    Show more